Probability
23 25 26 26 25 24 22 19 16 13 12 10 10 11 10 8 7 7 5 4 4 6 9 11 11 10 9 9 11 14 14 11 7 7 8 10 12 12 10 6 3 3 3
23 23 23 23 23 22 20 18 16 14 12 12 12 13 12 10 9 8 6 4 4 5 8 11 13 11 10 10 12 13 12 10 9 9 10 12 13 13 11 8 4 3 2
22 21 20 21 21 20 19 18 17 16 15 15 16 16 14 13 13 11 9 7 6 6 9 12 13 11 10 11 11 11 11 11 10 10 11 13 13 13 12 9 5 3 2
22 21 21 21 21 22 22 20 18 18 18 18 18 17 15 15 16 16 13 10 9 9 10 13 13 11 10 9 9 10 11 11 10 8 9 11 13 12 10 8 6 4 3
24 23 23 24 26 27 25 21 19 18 17 17 17 17 15 14 15 14 13 12 12 12 12 13 12 10 8 7 7 8 9 8 7 6 7 10 11 10 8 7 6 5 4
26 25 26 27 28 27 24 21 20 19 17 16 15 14 13 11 8 6 7 10 14 16 16 14 11 9 7 5 4 4 5 5 6 6 7 9 10 9 8 6 5 5 4
30 30 30 29 26 23 21 20 19 19 18 16 15 13 11 8 3 1 3 7 12 16 17 15 12 9 7 6 5 4 4 4 4 5 7 8 9 8 8 7 6 6 6
32 31 30 27 22 20 19 19 18 18 18 16 16 15 12 8 3 1 2 6 10 13 14 14 14 12 9 8 8 7 7 5 4 4 6 7 7 7 7 8 7 6 6
28 28 27 24 20 18 18 18 17 16 15 15 15 14 12 9 4 1 2 6 9 10 10 11 12 11 9 9 10 11 11 10 8 6 5 6 6 6 7 8 8 5 4
23 24 24 23 22 19 18 17 16 14 13 12 12 11 11 9 6 2 2 5 8 8 8 9 9 9 8 8 10 12 13 13 12 10 8 7 7 6 7 9 9 7 5
21 22 22 23 23 22 21 20 17 14 13 12 11 11 10 10 7 3 1 4 6 8 9 9 9 9 7 7 8 10 11 11 12 12 11 11 10 10 10 11 11 9 8
22 22 21 23 23 22 23 22 19 15 13 12 12 12 12 11 8 4 1 2 4 7 9 9 9 8 5 4 5 7 7 7 8 9 11 12 12 12 12 13 12 10 10
25 23 22 23 22 22 22 20 17 14 11 10 12 13 12 11 9 5 2 2 2 4 6 5 4 4 3 3 3 4 4 5 6 8 10 11 11 11 12 12 11 10 10
24 22 22 22 21 20 19 16 14 11 9 8 10 11 11 10 8 5 4 3 3 3 3 2 2 2 2 3 4 5 6 7 8 10 11 11 10 10 11 11 11 11 10
21 20 20 20 19 17 15 13 10 9 7 6 7 8 8 7 5 3 3 4 4 3 3 2 2 3 4 5 7 9 10 9 10 11 11 10 9 9 10 10 11 11 9
19 19 18 17 16 14 13 11 8 6 5 3 3 4 4 3 2 1 1 1 2 2 2 3 3 4 5 5 7 10 10 10 9 10 10 9 8 8 8 8 8 7 6
18 17 15 14 13 12 12 11 9 7 5 3 1 1 2 1 0 0 0 0 0 0 1 2 3 4 4 5 6 8 8 9 9 9 8 8 7 7 6 5 4 4 4
16 15 13 13 12 12 13 13 12 10 8 5 3 1 0 0 0 0 0 0 0 0 0 2 3 3 3 5 6 7 8 9 9 8 8 7 7 6 5 4 3 3 3
13 12 11 12 12 12 12 13 12 11 10 9 6 3 0 0 0 0 0 0 0 0 1 2 3 3 3 4 5 7 8 9 9 9 8 8 8 6 5 3 3 2 2
10 9 10 11 12 12 11 11 11 11 11 10 8 5 1 1 1 0 0 0 0 0 1 2 3 3 4 5 6 6 7 8 9 9 9 9 9 8 5 4 3 2 2
9 9 10 11 11 10 10 9 10 10 10 9 8 5 2 2 3 2 1 0 1 1 1 3 3 4 5 6 6 6 5 6 7 7 7 8 8 7 6 5 4 2 2
9 9 10 11 10 10 9 10 10 9 9 8 7 4 2 3 5 5 4 3 3 3 3 3 3 3 4 5 6 6 6 5 6 6 6 5 5 5 4 4 3 2 2
7 8 9 10 10 9 9 10 9 9 9 8 7 4 3 4 5 6 7 7 6 5 5 4 4 4 4 6 6 6 6 6 6 6 4 3 3 3 3 3 2 2 1
6 7 7 9 9 9 9 10 9 9 9 9 6 4 3 3 4 5 7 9 9 8 8 7 5 5 6 7 7 6 6 5 5 5 3 2 2 2 2 1 1 1 0
6 6 6 6 6 7 8 9 9 8 8 7 5 3 3 3 3 4 5 7 9 9 9 9 7 6 6 7 6 5 3 2 2 2 1 1 1 1 1 0 0 0 0
5 6 6 5 4 5 7 8 8 8 7 5 4 3 3 3 3 3 4 6 8 9 10 9 8 7 6 6 4 2 1 0 0 1 0 0 0 0 0 0 0 0 0
Wind_Speed
7 6 6 5 5 5 4 4 4 3 3 3 3 3 3 3 3 3 4 3 4 3 3 3 3 3 3 3 3 3 3 4 5 5 3 2 3 5 3 4 5 5 4
7 6 6 5 5 5 5 4 4 4 4 3 3 3 3 3 3 4 5 4 4 4 4 3 3 3 3 4 3 3 3 4 5 6 4 3 4 4 4 5 5 4 4
7 7 6 6 5 5 5 5 5 4 4 4 3 4 4 4 3 4 4 5 5 4 4 4 3 3 3 3 3 4 3 4 4 5 5 3 3 3 3 5 5 4 5
6 6 6 5 5 5 5 5 5 4 4 4 3 4 4 4 3 4 4 4 5 5 4 4 4 3 3 4 3 4 4 5 4 5 5 4 3 3 3 4 4 3 4
6 6 5 5 5 4 4 4 4 4 4 3 4 3 3 3 2 3 4 4 4 5 4 4 4 3 2 3 4 4 4 5 4 4 5 4 4 3 4 4 4 4 5
5 5 5 5 5 4 4 4 4 4 3 3 4 4 4 2 1 2 4 4 4 4 4 4 4 4 3 4 4 5 5 5 5 5 5 5 5 5 4 5 5 5 5
5 5 5 5 5 4 5 4 4 4 4 4 4 3 3 1 1 1 4 5 4 4 4 3 4 2 3 4 4 6 6 7 7 7 6 6 6 5 6 7 5 6 6
4 4 4 5 5 5 5 4 4 4 4 4 3 3 2 1 0 2 4 6 4 4 4 4 3 3 2 3 5 4 5 5 6 6 6 6 6 5 6 7 7 7 6
3 4 4 4 5 5 4 4 4 3 4 4 4 3 3 2 1 2 5 4 3 4 4 4 4 3 1 4 5 5 5 5 5 6 6 6 6 6 6 6 6 6 6
3 3 3 3 4 4 4 4 3 3 4 4 3 3 3 2 2 2 4 4 3 4 3 4 2 2 2 4 5 5 6 6 6 5 6 7 8 7 8 7 6 6 6
2 1 1 2 3 3 3 3 3 3 3 3 3 3 3 3 3 3 4 4 4 4 4 3 1 2 3 4 6 6 6 7 7 7 6 5 5 4 5 5 5 6 6
2 1 1 2 2 2 3 2 3 3 4 4 3 4 3 3 2 3 4 4 6 5 4 3 1 1 3 5 5 4 6 7 6 5 5 5 4 4 4 5 5 6 6
2 2 2 2 1 2 3 3 3 3 3 3 3 3 2 1 2 4 5 5 5 5 3 2 2 4 5 5 5 6 6 5 4 5 5 5 5 5 5 4 4 5 6
2 2 2 2 2 2 2 2 2 2 3 3 3 3 2 2 2 1 2 3 4 5 4 3 6 7 7 5 4 5 4 3 4 4 5 5 5 4 4 4 4 4 5
2 2 2 2 2 2 2 2 3 2 2 3 3 3 3 3 2 2 3 3 3 3 4 4 4 3 4 3 3 3 3 3 3 4 4 4 5 4 4 4 4 5 5
2 2 2 2 1 2 2 2 1 2 1 3 4 4 3 2 1 2 2 3 3 4 5 5 4 4 4 4 3 3 3 3 3 4 4 4 5 5 4 4 4 5 5
2 2 2 2 2 3 3 3 3 2 2 3 4 4 4 3 2 3 4 4 5 5 6 5 4 4 4 4 4 3 3 3 3 4 4 4 4 4 4 4 5 5 5
3 2 3 3 3 3 3 4 4 4 3 3 3 5 6 6 5 5 4 4 4 5 5 4 4 4 4 4 4 3 3 3 3 4 4 4 4 4 4 4 4 5 5
3 2 2 3 3 3 3 4 4 4 4 3 3 2 4 5 7 7 6 5 4 4 3 4 4 4 4 3 3 3 3 3 3 3 3 4 4 4 4 5 5 5 6
2 1 3 3 4 3 3 4 4 4 4 4 4 3 1 2 3 3 4 4 4 4 3 3 3 4 3 3 3 3 4 4 4 4 3 4 4 4 4 5 5 5 5
3 2 3 4 4 3 4 4 4 4 4 4 4 2 2 4 4 3 4 4 4 4 4 4 4 4 3 3 3 4 5 4 4 4 4 4 4 4 4 4 5 5 5
3 3 3 4 4 4 4 4 4 4 5 5 5 3 4 5 4 3 4 4 4 4 4 4 4 4 3 3 3 4 5 4 4 4 4 4 4 5 5 4 5 5 5
4 4 4 3 4 3 4 4 4 4 5 5 4 4 3 3 4 4 4 4 4 4 4 4 4 4 3 3 3 4 4 4 4 5 5 5 5 5 4 5 6 6 5
5 5 4 4 4 4 4 4 4 4 4 4 4 4 3 3 4 4 4 3 3 3 3 3 4 5 5 4 3 3 3 4 5 4 6 6 6 5 5 5 6 5 5
5 5 5 5 5 4 4 4 4 4 4 4 4 4 4 3 3 3 3 3 4 4 4 4 4 4 5 5 4 3 2 2 4 6 5 5 5 5 5 6 5 4 4
5 5 5 5 5 4 4 4 4 4 4 4 4 3 3 3 3 3 3 3 3 4 4 3 4 4 4 4 3 1 1 2 3 5 6 5 5 4 4 4 5 4 3
Wind_Direction
175 181 183 185 189 192 196 199 204 209 205 210 219 231 238 245 252 257 265 265 270 277 280 275 272 290 290 285 282 282 283 280 276 287 287 286 274 278 275 270 259 251 226
174 176 180 184 188 190 193 199 204 211 216 211 223 235 246 251 258 261 263 260 262 268 270 270 266 263 274 287 294 287 285 282 277 283 285 278 268 263 268 270 267 260 264
172 177 178 185 190 196 199 199 206 211 218 220 224 237 250 257 260 263 266 260 258 263 266 264 264 265 273 284 284 286 286 281 278 278 281 281 270 269 271 270 272 269 264
174 178 180 187 189 195 198 199 206 211 215 223 228 237 247 252 261 268 264 257 255 260 263 264 263 260 268 276 273 280 287 287 280 277 279 276 272 271 267 270 268 260 268
177 182 184 189 191 190 193 201 207 215 216 220 230 231 243 244 266 276 268 253 252 255 255 256 258 260 292 293 298 302 295 287 286 281 281 283 280 285 281 282 278 276 266
183 187 185 189 190 188 190 198 205 213 223 228 229 233 244 266 24 322 290 266 255 255 257 258 254 228 232 243 263 281 288 285 291 290 281 284 288 286 293 284 284 283 281
183 190 187 187 192 197 199 201 210 211 217 229 235 241 247 257 32 311 290 272 262 268 271 273 279 286 260 266 245 236 248 250 259 274 282 287 288 293 291 283 279 280 286
183 190 190 191 197 201 203 210 218 221 219 224 230 234 239 217 161 265 275 254 260 266 270 272 275 286 303 300 280 276 273 266 259 263 278 280 285 292 282 276 278 271 267
182 194 198 199 202 206 211 217 219 219 227 232 227 228 234 228 187 266 270 254 250 256 261 264 265 260 313 297 274 274 279 278 248 244 261 267 273 273 277 274 272 273 275
189 197 194 201 211 216 215 217 219 218 225 235 229 229 234 246 182 247 274 261 259 258 250 240 213 257 286 276 269 273 276 285 290 278 256 247 248 239 235 253 267 269 276
181 179 190 204 215 212 212 214 217 223 227 240 240 238 236 244 200 208 265 273 278 270 263 255 209 175 249 260 268 274 282 288 281 278 274 266 257 251 245 246 257 266 269
168 173 187 211 226 193 195 205 216 228 229 229 233 240 231 222 233 205 228 259 294 281 275 276 268 190 246 255 260 275 277 274 272 276 279 282 284 282 277 271 263 264 266
169 182 186 189 204 216 218 214 217 225 245 245 240 242 244 238 191 193 215 237 260 269 286 320 296 252 254 243 235 247 255 262 274 279 283 289 293 292 284 274 267 260 261
189 199 194 198 200 209 239 240 241 244 256 264 264 266 266 257 264 258 255 237 232 246 263 236 223 231 241 257 251 240 250 273 284 285 292 298 299 288 278 281 284 281 273
212 226 230 224 208 212 232 273 266 262 275 270 278 276 273 272 309 339 294 287 294 302 290 267 263 260 256 258 261 266 267 260 265 279 286 295 296 296 295 296 289 283 281
243 246 254 251 237 236 231 244 351 297 198 227 257 275 288 307 340 285 274 285 295 288 273 264 270 273 275 278 276 270 267 273 283 286 284 287 292 295 296 295 292 287 284
271 275 274 267 261 251 245 250 255 253 230 231 234 238 249 266 260 257 256 251 253 248 254 264 270 274 276 278 275 279 285 290 291 285 289 292 294 297 296 292 289 290 294
277 262 262 261 261 259 253 258 264 268 265 265 235 216 217 221 226 230 231 239 242 228 254 268 273 277 278 280 282 283 282 277 272 281 291 296 298 297 292 291 291 297 297
279 280 278 280 270 265 268 269 270 271 273 274 275 233 207 215 214 219 217 247 261 259 261 273 282 284 281 282 288 291 289 282 286 288 290 294 297 295 294 293 291 289 287
266 276 275 271 266 266 265 268 272 273 272 270 270 277 252 248 249 225 224 243 253 261 267 271 274 276 280 285 285 283 280 276 274 275 292 294 292 292 294 296 298 295 290
286 257 245 262 265 267 270 272 273 272 273 276 273 268 245 263 258 253 253 250 254 261 263 264 266 266 262 264 271 277 279 284 288 292 298 298 301 301 300 296 297 297 294
284 272 258 266 270 267 275 273 272 275 277 279 282 256 204 249 265 260 256 260 260 259 256 253 258 261 262 262 264 271 278 283 287 290 294 294 294 294 297 299 301 301 297
277 276 274 272 270 265 261 269 274 275 278 281 281 281 261 262 266 266 265 265 263 262 260 256 256 260 262 260 265 270 276 283 290 297 297 294 289 289 292 292 291 292 293
279 277 276 272 267 265 266 271 272 275 279 280 280 277 274 265 263 266 269 272 273 271 267 259 256 260 266 268 268 270 287 306 300 286 285 285 288 293 291 290 290 291 294
273 274 276 277 272 270 273 274 274 278 282 283 283 283 282 278 273 273 273 268 265 263 264 262 256 256 258 264 275 288 349 326 296 297 280 276 280 283 284 287 291 294 291
280 277 274 272 274 277 276 273 274 281 284 288 289 288 288 284 279 277 277 275 272 267 266 260 257 261 265 263 273 295 239 256 271 282 277 270 272 279 290 288 289 284 281